Погода в Охтеурье

Россия / Ханты-Мансийский автономный округ - Югра     60°58′32″N   78°59′03″E
темп.,
°C
ветер,
м/с
пор.,
м/с
влажн.,
%
обл.,
%
осадки,
мм/ч
давл.,
гПа
погр.,
м
22 января, пт
пт2223:00−25в3798100 0.9 1011422
02:00−26в3796100 0.4 1010374
05:00−27всв3697100 0.4 1010265
08:00−27всв3698100 0.3 1010314
11:00−27св3597100 0.5 1010313
14:00−28ссв3596100 0.1 1012364
17:00−29ссв3696100 0.2 1014304
20:00−32с259899 0.1 1016167
23 января, сб
сб2323:00−34с249895 0.1 1019127
02:00−34с2597100 0.0 1021248
05:00−36с2496100 0.1 1023225
08:00−41с239690 0.0 102568
11:00−40ссз229668 0.0 1027119
14:00−40ссз239654 0.0 1028134
17:00−43сз229753 0.0 103018
20:00−44ссз229652 0.0 103218
24 января, вс
вс2423:00−45сз229753 0.0 103218
02:00−46сз229758 0.0 103419
05:00−46сз229758 0.0 103520
08:00−47ссз229759 0.0 103618
11:00−44сз229658 0.0 1037117
14:00−43сз239657 0.0 1038120
17:00−45сз229757 0.0 104018
20:00−45ссз229652 0.0 104118
25 января, пн
пн2523:00−45сз229753 0.0 104218
02:00−45сз229755 0.0 104318
05:00−46сз129754 0.0 104418
08:00−46сз119755 0.0 104518
11:00−42сз119654 0.0 104684
14:00−41ссз119655 0.0 104675
17:00−44с119654 0.0 104718
20:00−45всв019652 0.0 104718
26 января, вт
вт2623:00−45юв009752 0.0 104718
02:00−45юв119752 0.0 104818
05:00−45юв119752 0.0 104818
08:00−44ююв129752 0.0 104918
11:00−41ююв239656 0.0 1049124
14:00−39ююв249682 0.0 1048186
17:00−41ююв369685 0.0 1048126
20:00−39ююв4994100 0.0 1047268